Weather History for Baltimore Martin, MD

Change the Weather History Date:

Thursday, October 24, 2013

  Actual Average Record
Temperature  
Mean Temperature 48 °F -  
Max Temperature 53 °F 60 °F 75 °F (2001)
Min Temperature 42 °F 43 °F 35 °F (1997)
Degree Days  
Heating Degree Days 18    
Moisture  
Dew Point 32 °F    
Average Humidity 60    
Maximum Humidity 76    
Minimum Humidity 35    
Precipitation  
Precipitation 0.00 in - - ()
Sea Level Pressure  
Sea Level Pressure 30.00 in    
Wind  
Wind Speed 9 mph (WSW)    
Max Wind Speed 18 mph    
Max Gust Speed 25 mph    
Visibility 10 miles    
Events      
Averages and records for this station are not official NWS values.
T = Trace of Precipitation, MM = Missing Value Source: NWS Daily Summary

Daily Weather History Graph

Daily Weather History Graph

Search for Another Location

Airport:

Trip Planner

Search our weather history database for the weather conditions in past years. The results will help you decide how hot, cold, wet, or windy it might be!

Date:

Astronomy

Oct. 24, 2013 Rise Set
Actual Time 7:25 AM EDT 6:13 PM EDT
Civil Twilight 6:57 AM EDT 6:41 PM EDT
Nautical Twilight 6:26 AM EDT 7:12 PM EDT
Astronomical Twilight 5:55 AM EDT 7:43 PM EDT
Moon 10:37 PM EDT (10/24) 12:23 PM EDT (10/24)
Length of Visible Light 11h 43m
Length of Day
10h 48m
Waning Gibbous, 71% of the Moon is Illuminated
Oct 24
Waning Gibbous
Oct 26
Last Quarter
Nov 3
New
Nov 10
First Quarter
Nov 17
Full

Hourly Weather History & Observations

Time (EDT) Temp. Windchill Dew Point Humidity Pressure Visibility Wind Dir Wind Speed Gust Speed Precip Events Conditions
12:09 AM 46.4 °F 42.4 °F 35.6 °F 66% 29.89 in 10.0 mi WSW 8.1 mph - N/A   Clear
12:30 AM 44.6 °F 40.2 °F 35.6 °F 71% 29.89 in 10.0 mi WSW 8.1 mph - N/A   Clear
12:51 AM 44.6 °F 40.2 °F 35.6 °F 71% 29.90 in 10.0 mi WSW 8.1 mph - N/A   Clear
1:09 AM 44.6 °F 40.2 °F 33.8 °F 66% 29.90 in 10.0 mi West 8.1 mph - N/A   Clear
1:30 AM 44.6 °F 40.2 °F 33.8 °F 66% 29.91 in 10.0 mi WSW 8.1 mph - N/A   Scattered Clouds
1:51 AM 44.6 °F 39.7 °F 33.8 °F 66% 29.91 in 10.0 mi West 9.2 mph - N/A   Clear
2:09 AM 44.6 °F 40.7 °F 33.8 °F 66% 29.92 in 10.0 mi WSW 6.9 mph - N/A   Scattered Clouds
2:30 AM 44.6 °F 41.4 °F 33.8 °F 66% 29.93 in 10.0 mi West 5.8 mph - N/A   Scattered Clouds
2:51 AM 44.6 °F 39.7 °F 33.8 °F 66% 29.93 in 10.0 mi West 9.2 mph - N/A   Clear
3:09 AM 44.6 °F 39.7 °F 33.8 °F 66% 29.94 in 10.0 mi West 9.2 mph - N/A   Clear
3:30 AM 44.6 °F 40.2 °F 33.8 °F 66% 29.94 in 10.0 mi West 8.1 mph - N/A   Clear
3:51 AM 44.6 °F 39.7 °F 33.8 °F 66% 29.94 in 10.0 mi West 9.2 mph - N/A   Clear
4:09 AM 44.6 °F 40.2 °F 33.8 °F 66% 29.94 in 10.0 mi West 8.1 mph - N/A   Clear
4:30 AM 44.6 °F 39.2 °F 33.8 °F 66% 29.95 in 10.0 mi West 10.4 mph - N/A   Clear
4:48 AM 42.8 °F 37.5 °F 33.8 °F 70% 29.96 in 10.0 mi West 9.2 mph - N/A   Clear
5:12 AM 42.8 °F 38.0 °F 33.8 °F 70% 29.97 in 10.0 mi West 8.1 mph - N/A   Clear
5:30 AM 42.8 °F 39.3 °F 33.8 °F 70% 29.97 in 10.0 mi WSW 5.8 mph - N/A   Clear
5:49 AM 42.8 °F 39.3 °F 35.6 °F 76% 29.98 in 10.0 mi West 5.8 mph - N/A   Clear
6:55 AM 42.8 °F 39.3 °F 35.6 °F 76% 30.00 in 10.0 mi West 5.8 mph - N/A   Partly Cloudy
7:45 AM 42.8 °F 36.6 °F 33.8 °F 70% 30.00 in 10.0 mi West 11.5 mph - N/A   Partly Cloudy
8:55 AM 46.4 °F 41.9 °F 35.6 °F 66% 30.02 in 10.0 mi West 9.2 mph - N/A   Clear
9:46 AM 48.2 °F - 35.6 °F 62% 30.03 in 10.0 mi West 12.7 mph - N/A   Clear
10:55 AM 51.8 °F - 32.0 °F 47% 30.04 in 10.0 mi West 17.3 mph - N/A   Clear
11:45 AM 53.6 °F - 30.2 °F 41% 30.03 in 10.0 mi West 12.7 mph 24.2 mph N/A   Scattered Clouds
12:45 PM 53.6 °F - 26.6 °F 35% 30.02 in 10.0 mi WSW 11.5 mph 23.0 mph N/A   Scattered Clouds
1:50 PM 51.8 °F - 30.2 °F 44% 30.01 in 10.0 mi West 18.4 mph 25.3 mph N/A   Mostly Cloudy
2:50 PM 51.8 °F - 26.6 °F 38% 30.01 in 10.0 mi WSW 16.1 mph 24.2 mph N/A   Scattered Clouds
3:50 PM 51.8 °F - 28.4 °F 41% 30.02 in 10.0 mi WSW 13.8 mph 23.0 mph N/A   Mostly Cloudy
5:45 PM 50.0 °F - 28.4 °F 43% 30.05 in 10.0 mi West 11.5 mph 18.4 mph N/A   Scattered Clouds
6:45 PM 48.2 °F - 26.6 °F 43% 30.07 in 10.0 mi West 6.9 mph - N/A   Partly Cloudy
7:50 PM 46.4 °F 43.5 °F 26.6 °F 46% 30.09 in 10.0 mi West 5.8 mph - N/A   Partly Cloudy
8:45 PM 46.4 °F 42.4 °F 28.4 °F 50% 30.10 in 10.0 mi West 8.1 mph - N/A   Clear
9:45 PM 44.6 °F 40.7 °F 28.4 °F 53% 30.12 in 10.0 mi WSW 6.9 mph - N/A   Clear
10:12 PM 44.6 °F 42.2 °F 30.2 °F 57% 30.13 in 10.0 mi WSW 4.6 mph - N/A   Clear
10:33 PM 44.6 °F 41.4 °F 30.2 °F 57% 30.13 in 10.0 mi SW 5.8 mph - N/A   Clear
10:54 PM 42.8 °F 39.3 °F 30.2 °F 61% 30.13 in 10.0 mi WSW 5.8 mph - N/A   Clear
11:12 PM 42.8 °F 38.6 °F 30.2 °F 61% 30.13 in 10.0 mi WSW 6.9 mph - N/A   Clear
11:33 PM 42.8 °F 38.0 °F 32.0 °F 66% 30.13 in 10.0 mi WSW 8.1 mph - N/A   Clear
11:54 PM 42.8 °F 38.6 °F 32.0 °F 66% 30.14 in 10.0 mi WSW 6.9 mph - N/A   Clear